When you browse on this site, cookies collect data to enhance your experience and personalize the content and advertising you see.
Visit our Privacy Policy to learn more. By continuing to use the site, you agree to this use of cookies and data.
  • In United Kingdom
  • List of Countries
  • For 7 days
  • Water Temperature
  • Weather Map
  • Weather Widgets
  • user-avatar
    Login

    Hourly Weather Filipestii de Padure

    Today, 6 December, Friday

    Time Temperature Precipitation Wind Pressure Humidity
    00:00 -1°C° 0 mm 2 mps 742 mmHg 54%
    01:00 -1°C° 0 mm 2 mps 742 mmHg 52%
    02:00 -1°C° 0 mm 2 mps 742 mmHg 51%
    03:00 -1°C° 0 mm 2 mps 742 mmHg 51%
    04:00 -1°C° 0 mm 2 mps 741 mmHg 50%
    05:00 -1°C° 0 mm 2 mps 741 mmHg 50%
    06:00 -1°C° 0 mm 2 mps 741 mmHg 49%
    07:00 -1°C° 0 mm 2 mps 741 mmHg 48%
    08:00 -1°C° 0 mm 2 mps 741 mmHg 48%
    09:00 +2°C° 0 mm 2 mps 741 mmHg 44%
    10:00 +3°C° 0 mm 2 mps 741 mmHg 41%
    11:00 +5°C° 0 mm 2 mps 741 mmHg 38%
    12:00 +5°C° 0 mm 2 mps 740 mmHg 40%
    13:00 +6°C° 0 mm 2 mps 740 mmHg 42%
    14:00 +5°C° 0 mm 3 mps 739 mmHg 45%
    15:00 +5°C° 0 mm 2 mps 739 mmHg 50%
    16:00 +3°C° 0 mm 2 mps 739 mmHg 56%
    17:00 +2°C° 0 mm 2 mps 738 mmHg 61%
    18:00 +2°C° 0 mm 2 mps 738 mmHg 61%
    19:00 +2°C° 0 mm 2 mps 738 mmHg 61%
    20:00 +1°C° 0 mm 2 mps 738 mmHg 61%
    21:00 +1°C° 0 mm 2 mps 738 mmHg 60%
    22:00 +1°C° 0 mm 2 mps 738 mmHg 58%
    23:00 +1°C° 0 mm 2 mps 738 mmHg 57%

    Tomorrow, 7 December, Saturday

    Time Temperature Precipitation Wind Pressure Humidity
    00:00 +1°C° 0 mm 2 mps 737 mmHg 56%
    01:00 +1°C° 0 mm 2 mps 737 mmHg 54%
    02:00 +1°C° 0 mm 2 mps 737 mmHg 53%
    03:00 +2°C° 0 mm 2 mps 736 mmHg 54%
    04:00 +2°C° 0 mm 2 mps 736 mmHg 55%
    05:00 +2°C° 0 mm 2 mps 735 mmHg 56%
    06:00 +2°C° 0 mm 2 mps 735 mmHg 57%
    07:00 +2°C° 0 mm 2 mps 735 mmHg 59%
    08:00 +2°C° 0 mm 2 mps 735 mmHg 60%
    09:00 +5°C° 0 mm 1 mps 735 mmHg 58%
    10:00 +6°C° 0 mm 1 mps 735 mmHg 57%
    11:00 +8°C° 0 mm 1 mps 735 mmHg 55%
    12:00 +8°C° 0 mm 1 mps 734 mmHg 56%
    13:00 +9°C° 0 mm 1 mps 734 mmHg 56%
    14:00 +9°C° 0 mm 1 mps 733 mmHg 57%
    15:00 +8°C° 0 mm 1 mps 733 mmHg 62%
    16:00 +7°C° 0 mm 1 mps 733 mmHg 66%
    17:00 +5°C° 0 mm 2 mps 733 mmHg 71%
    18:00 +5°C° 0 mm 2 mps 734 mmHg 73%
    19:00 +5°C° 0 mm 2 mps 734 mmHg 76%
    20:00 +6°C° 0 mm 1 mps 734 mmHg 78%
    21:00 +5°C° 0 mm 2 mps 734 mmHg 79%
    22:00 +5°C° 0 mm 2 mps 734 mmHg 80%
    23:00 +5°C° 0 mm 2 mps 734 mmHg 82%

    Day after tomorrow, 8 December, Sunday

    Time Temperature Precipitation Wind Pressure Humidity
    00:00 +5°C° 0 mm 2 mps 734 mmHg 82%
    01:00 +5°C° 0 mm 2 mps 734 mmHg 82%
    02:00 +6°C° 0 mm 1 mps 734 mmHg 82%
    03:00 +5°C° 0 mm 2 mps 734 mmHg 82%
    04:00 +4°C° 0 mm 2 mps 733 mmHg 82%
    05:00 +4°C° 0 mm 2 mps 733 mmHg 82%
    06:00 +4°C° 0 mm 2 mps 734 mmHg 81%
    07:00 +4°C° 0 mm 2 mps 734 mmHg 81%
    08:00 +4°C° 0 mm 2 mps 734 mmHg 80%
    09:00 +7°C° 0 mm 1 mps 734 mmHg 75%
    10:00 +8°C° 0 mm 1 mps 735 mmHg 70%
    11:00 +9°C° 0 mm 1 mps 735 mmHg 64%
    12:00 +9°C° 0 mm 1 mps 735 mmHg 64%
    13:00 +9°C° 0 mm 1 mps 735 mmHg 64%
    14:00 +9°C° 0 mm 1 mps 735 mmHg 63%
    15:00 +9°C° 0 mm 1 mps 735 mmHg 66%
    16:00 +8°C° 0 mm 1 mps 735 mmHg 69%
    17:00 +7°C° 0 mm 1 mps 735 mmHg 72%
    18:00 +7°C° 0 mm 1 mps 735 mmHg 73%
    19:00 +6°C° 0 mm 1 mps 735 mmHg 75%
    20:00 +6°C° 0 mm 1 mps 735 mmHg 76%
    21:00 +5°C° 0 mm 1 mps 735 mmHg 76%
    22:00 +5°C° 0 mm 1 mps 735 mmHg 77%
    23:00 +5°C° 0 mm 1 mps 735 mmHg 77%

    9 December, Monday

    Time Temperature Precipitation Wind Pressure Humidity
    00:00 +5°C° 0 mm 1 mps 734 mmHg 78%
    01:00 +4°C° 0 mm 1 mps 734 mmHg 80%
    02:00 +4°C° 0 mm 1 mps 734 mmHg 81%
    03:00 +4°C° 0 mm 1 mps 733 mmHg 81%
    04:00 +4°C° 0 mm 1 mps 733 mmHg 80%
    05:00 +4°C° 0 mm 1 mps 732 mmHg 80%
    06:00 +4°C° 0 mm 1 mps 732 mmHg 80%
    07:00 +4°C° 0 mm 1 mps 732 mmHg 81%
    08:00 +3°C° 0 mm 1 mps 732 mmHg 81%
    09:00 +5°C° 0 mm 1 mps 731 mmHg 76%
    10:00 +6°C° 0 mm 1 mps 731 mmHg 71%
    11:00 +7°C° 0 mm 1 mps 731 mmHg 66%
    12:00 +7°C° 0 mm 2 mps 730 mmHg 64%
    13:00 +7°C° 0 mm 2 mps 729 mmHg 63%
    14:00 +8°C° 0 mm 2 mps 729 mmHg 62%
    15:00 +7°C° 0 mm 2 mps 728 mmHg 65%
    16:00 +7°C° 0 mm 1 mps 728 mmHg 69%
    17:00 +6°C° 0 mm 1 mps 727 mmHg 73%
    18:00 +6°C° 0 mm 1 mps 727 mmHg 73%
    19:00 +6°C° 0 mm 1 mps 727 mmHg 74%
    20:00 +6°C° 0 mm 1 mps 726 mmHg 74%
    21:00 +6°C° 0 mm 1 mps 726 mmHg 75%
    22:00 +6°C° 0 mm 1 mps 725 mmHg 75%
    23:00 +6°C° 0 mm 1 mps 725 mmHg 76%

    10 December, Tuesday

    Time Temperature Precipitation Wind Pressure Humidity
    00:00 +6°C° 0.3 mm 1 mps 724 mmHg 78%
    01:00 +5°C° 0.3 mm 2 mps 724 mmHg 81%
    02:00 +5°C° 0.3 mm 2 mps 723 mmHg 83%
    03:00 +4°C° 0.1 mm 3 mps 723 mmHg 85%
    04:00 +3°C° 0.1 mm 3 mps 723 mmHg 87%
    05:00 +3°C° 0.1 mm 4 mps 723 mmHg 89%
    06:00 +3°C° 0 mm 4 mps 724 mmHg 89%
    07:00 +3°C° 0 mm 4 mps 724 mmHg 88%
    08:00 +4°C° 0 mm 4 mps 724 mmHg 88%
    09:00 +4°C° 0 mm 4 mps 725 mmHg 82%
    10:00 +5°C° 0 mm 3 mps 726 mmHg 76%
    11:00 +7°C° 0 mm 3 mps 726 mmHg 70%
    12:00 +8°C° 0 mm 3 mps 726 mmHg 64%
    13:00 +9°C° 0 mm 3 mps 727 mmHg 57%
    14:00 +9°C° 0 mm 3 mps 727 mmHg 51%
    15:00 +8°C° 0 mm 3 mps 727 mmHg 55%
    16:00 +7°C° 0 mm 2 mps 728 mmHg 59%
    17:00 +6°C° 0 mm 2 mps 728 mmHg 63%
    18:00 +5°C° 0 mm 2 mps 729 mmHg 64%
    19:00 +5°C° 0 mm 2 mps 729 mmHg 66%
    20:00 +4°C° 0 mm 2 mps 730 mmHg 67%
    21:00 +4°C° 0 mm 2 mps 731 mmHg 68%
    22:00 +3°C° 0 mm 2 mps 731 mmHg 68%
    23:00 +4°C° 0 mm 1 mps 732 mmHg 69%

    11 December, Wednesday

    Time Temperature Precipitation Wind Pressure Humidity
    00:00 +4°C° 0 mm 1 mps 732 mmHg 70%
    01:00 +3°C° 0 mm 2 mps 733 mmHg 71%
    02:00 +2°C° 0 mm 2 mps 733 mmHg 72%
    03:00 +3°C° 0 mm 1 mps 733 mmHg 73%
    04:00 +3°C° 0 mm 1 mps 734 mmHg 74%
    05:00 +3°C° 0 mm 1 mps 734 mmHg 75%
    06:00 +3°C° 0 mm 1 mps 734 mmHg 75%
    07:00 +3°C° 0 mm 1 mps 735 mmHg 76%
    08:00 +2°C° 0 mm 1 mps 735 mmHg 76%
    09:00 +4°C° 0 mm 1 mps 736 mmHg 70%
    10:00 +5°C° 0 mm 1 mps 736 mmHg 63%
    11:00 +7°C° 0 mm 1 mps 737 mmHg 56%
    12:00 +7°C° 0 mm 1 mps 737 mmHg 57%
    13:00 +6°C° 0 mm 2 mps 736 mmHg 57%
    14:00 +6°C° 0 mm 2 mps 736 mmHg 58%
    15:00 +6°C° 0 mm 1 mps 736 mmHg 64%
    16:00 +5°C° 0 mm 1 mps 736 mmHg 69%
    17:00 +3°C° 0 mm 0 mps 737 mmHg 75%
    18:00 +3°C° 0 mm 0 mps 737 mmHg 77%
    19:00 +2°C° 0 mm 0 mps 737 mmHg 79%
    20:00 +2°C° 0 mm 0 mps 736 mmHg 81%
    21:00 +2°C° 0 mm 0 mps 736 mmHg 81%
    22:00 +1°C° 0 mm 0 mps 736 mmHg 82%
    23:00 +2°C° 0 mm 1 mps 736 mmHg 83%
    Show more